Lapse_Rate
6.2 6.6 7.0 7.3 7.3 7.3 6.7 5.6 5.3 5.0 5.0 4.7 4.3 4.2 4.0 3.5 2.3 1.1 -0.5 -1.1 1.3 0.7 1.9 1.2 2.1 0.1 1.1 1.5 6.5 3.7 5.4 5.0 5.6 6.5 6.5 6.5 6.5 6.5 6.5 6.5 6.5 6.5 6.5 6.5 6.5 6.5 6.5 5.4 6.4 6.5 5.6 4.8 4.5 3.7
5.4 5.7 5.9 6.0 6.4 6.8 7.1 7.0 5.4 5.0 5.1 5.1 4.8 4.6 4.4 4.3 2.9 1.7 0.8 -0.4 -0.2 0.7 1.8 0.8 2.2 2.2 2.4 1.4 -0.5 -1.1 3.8 2.5 3.9 6.5 6.5 6.5 6.5 6.5 6.5 6.5 6.5 6.5 6.5 6.5 6.5 6.5 5.7 4.1 3.4 -0.3 -0.4 1.9 3.5 3.1
4.8 5.1 5.3 5.5 5.7 5.7 5.9 6.3 6.8 6.6 5.7 6.0 5.6 5.2 5.1 4.9 3.8 2.5 -0.1 -0.8 0.0 0.3 1.2 1.6 2.0 1.4 1.4 1.8 1.5 2.0 1.5 0.8 1.5 0.8 4.3 6.4 6.5 6.5 6.5 6.5 6.5 6.5 2.4 6.5 6.5 6.6 5.8 2.8 -1.4 0.4 0.7 2.0 1.2 1.9
5.3 5.3 5.2 5.4 5.5 5.8 6.0 5.9 6.0 6.6 6.7 6.7 6.7 5.9 5.9 5.7 4.9 1.8 0.3 -0.4 0.6 0.1 2.4 2.9 1.0 1.8 1.2 1.9 3.5 3.3 1.7 1.3 0.9 1.3 1.1 6.5 6.5 4.7 6.5 6.5 6.5 5.9 6.3 6.5 6.5 5.9 1.9 0.0 -1.2 0.0 1.0 0.6 0.5 0.6
5.7 5.7 5.6 5.6 5.8 6.0 6.2 6.3 6.3 6.1 6.3 7.0 7.3 7.4 6.3 6.1 5.9 1.5 0.2 -0.1 1.0 2.9 4.0 1.8 0.8 1.5 2.4 3.1 3.5 3.6 4.3 3.7 2.5 3.3 5.6 6.5 4.6 5.8 5.8 6.4 6.5 5.5 6.5 6.5 6.5 4.4 2.6 0.7 -4.5 -2.8 0.3 0.1 -0.1 -0.4
5.1 5.2 5.8 5.9 5.8 5.7 5.7 6.5 6.8 6.7 6.3 6.2 6.9 7.4 7.7 7.7 3.8 3.2 1.9 -0.7 0.4 2.3 2.1 6.4 2.8 2.4 4.2 4.4 4.9 5.0 5.2 3.3 1.9 2.3 4.4 2.4 2.5 4.5 6.5 6.5 5.8 0.0 -2.7 -1.5 2.5 -3.6 -3.5 -4.4 -6.3 -7.1 -1.3 -0.5 -1.2 -0.9
5.4 5.9 6.2 5.4 5.8 5.9 5.9 5.9 6.2 6.6 6.1 6.4 6.4 7.2 7.5 7.5 4.4 4.7 3.8 2.9 2.4 2.5 2.4 5.3 5.0 4.6 4.6 5.5 5.6 5.7 5.6 5.3 4.3 3.4 5.3 5.2 5.2 4.7 6.5 6.5 5.4 -1.1 -1.9 -3.2 -6.8 -3.9 0.4 -6.0 -1.9 -7.3 -3.9 -2.4 0.6 -4.5
7.5 6.9 6.3 6.0 6.5 5.9 6.0 6.1 5.9 6.1 5.9 5.9 5.9 6.8 7.4 6.3 5.5 5.2 3.4 3.7 2.7 3.3 2.6 6.5 6.5 5.7 5.7 6.1 6.1 5.5 6.2 5.9 5.7 5.2 6.0 6.5 5.4 4.9 6.5 6.3 1.9 -4.5 -6.3 -5.5 -4.2 -4.2 -4.9 -8.8 -8.8 -7.9 -7.2 -4.0 -3.4 -3.2
8.6 8.7 8.5 7.5 6.8 6.4 6.9 5.9 6.1 6.1 6.0 5.8 5.6 6.6 5.9 4.0 4.6 3.2 4.0 3.0 3.3 4.6 5.9 5.8 6.5 6.5 5.1 4.8 4.8 4.7 4.5 6.4 5.1 6.5 6.3 6.2 6.5 6.5 6.5 5.8 1.7 -0.3 -0.5 -0.2 -6.2 -6.7 -7.4 -4.2 -4.9 -6.9 -6.3 -5.4 -2.0 -2.8
8.2 8.5 8.7 8.8 8.7 8.1 6.6 6.6 6.4 6.2 6.0 5.5 4.4 4.0 5.0 3.8 4.4 3.9 4.3 3.8 4.4 2.7 1.7 6.4 3.0 6.5 4.3 4.0 4.5 5.2 4.5 6.5 6.5 6.4 5.9 6.5 6.5 6.2 4.1 1.9 1.7 -0.4 -1.0 -3.0 -0.8 -0.6 -4.5 -3.1 -2.7 -4.0 -4.9 -4.1 -1.8 -2.4
8.2 8.1 8.2 8.3 8.6 8.8 8.6 7.3 6.7 7.0 5.4 2.4 4.3 4.2 5.0 5.3 3.8 4.1 4.8 6.1 5.7 6.2 5.0 4.6 5.6 6.4 4.3 6.4 6.5 5.8 6.5 6.5 6.5 6.5 6.5 6.5 6.5 6.2 1.2 1.0 -1.6 -3.1 -2.6 -3.8 -1.9 -1.8 -1.6 -1.1 -1.6 -2.2 -3.8 -4.4 -4.7 -4.3
8.0 8.1 8.1 8.1 8.2 8.6 8.8 8.7 8.2 6.7 3.0 4.0 2.7 4.4 4.7 4.3 4.8 6.4 6.5 6.2 6.5 6.5 5.4 6.4 4.9 3.2 3.2 3.0 5.7 5.7 6.5 6.5 6.5 6.1 6.5 6.5 6.5 2.9 1.2 0.9 -1.0 -4.1 -4.6 -4.1 -3.4 -2.5 -2.7 -1.9 -2.0 -1.6 -2.0 -2.8 -3.6 -3.0
8.2 8.1 8.2 8.1 8.4 8.4 8.7 8.9 8.5 5.8 3.0 3.3 4.1 4.9 5.6 6.0 6.5 6.5 6.5 6.5 6.5 6.3 4.5 4.8 6.2 2.5 2.9 4.3 5.4 6.5 6.5 6.5 6.4 6.5 6.5 6.5 4.5 2.6 -0.5 -1.2 -1.2 -2.6 -3.5 -3.0 -2.8 -3.5 -3.6 -3.1 -3.9 -3.8 -3.2 -5.1 -3.9 -4.1
8.0 8.2 8.1 8.2 8.2 8.5 8.7 8.7 8.5 5.7 4.6 5.3 6.2 6.5 6.5 6.5 6.5 6.5 6.5 6.5 4.7 4.7 6.2 5.2 5.9 5.8 5.1 6.5 6.5 6.5 6.5 6.5 6.5 6.5 6.5 6.5 2.6 1.8 0.0 -1.3 -1.6 -1.0 -1.9 -2.6 -2.6 -2.7 -2.5 -2.5 -3.7 -4.9 -5.5 -5.9 -5.2 -4.3
7.6 7.6 8.0 8.4 8.2 8.3 8.6 8.3 7.9 5.4 4.6 6.3 6.3 6.5 6.5 5.2 0.5 0.4 0.1 3.3 3.4 6.2 4.6 5.1 5.8 5.2 6.5 6.5 6.5 6.5 6.5 6.5 6.5 6.5 6.5 3.5 3.1 1.1 0.6 -0.0 -0.8 -1.5 -2.1 -2.3 -3.3 -2.9 -3.0 -4.7 -5.7 -5.2 -5.6 -6.2 -5.5 -4.8
7.0 6.9 6.7 7.5 8.4 8.5 8.2 8.0 6.9 5.1 4.6 6.1 6.3 6.5 4.8 6.4 6.4 2.8 2.2 4.8 4.1 6.0 3.9 4.8 6.5 6.5 6.5 6.5 6.5 6.5 6.5 6.5 6.5 6.5 5.8 5.0 3.8 2.1 1.3 0.8 0.4 -0.7 -1.9 -2.0 -2.3 -2.4 -2.4 -3.0 -3.4 -3.4 -5.8 -5.6 -5.1 -3.9
6.9 6.4 6.8 7.4 8.1 8.0 8.2 5.3 4.4 5.4 5.6 6.3 6.5 3.7 2.6 1.9 4.7 4.0 2.8 4.4 5.6 5.7 6.5 6.5 6.5 6.5 6.5 6.5 6.5 6.5 6.5 6.5 6.5 6.8 5.8 4.6 3.8 2.7 2.1 2.4 2.1 1.3 0.7 0.6 -0.3 -1.0 -1.9 -3.1 -4.9 -5.3 -3.3 -2.8 -3.0 -2.5
6.0 5.9 7.1 7.6 7.5 6.6 4.3 4.3 5.4 5.8 6.5 5.9 6.2 4.1 2.8 1.0 3.8 3.3 2.6 3.8 4.0 5.5 5.8 6.5 6.1 6.5 6.5 6.5 6.5 6.5 5.4 5.6 5.3 5.5 4.7 4.1 2.8 2.6 2.6 2.1 2.0 1.3 1.1 1.1 0.2 -1.3 -2.2 -3.3 -2.4 -1.1 -1.3 -1.3 -1.9 -2.3
5.4 6.5 7.5 7.6 6.1 4.7 5.3 5.1 5.1 6.4 6.1 5.2 4.8 3.8 4.0 4.2 4.1 2.6 2.7 5.0 4.3 4.3 4.6 6.1 6.5 6.5 6.5 6.5 6.4 6.1 5.4 5.2 5.4 4.4 4.3 3.7 3.0 2.5 2.3 2.2 2.2 2.0 1.6 1.3 1.1 1.4 1.2 0.5 0.6 0.6 0.7 0.9 1.5 1.5
7.0 7.1 7.3 6.7 6.2 5.0 5.5 5.4 4.8 4.7 6.5 5.7 5.0 4.5 4.6 4.8 5.0 5.8 6.7 5.0 5.2 5.1 6.3 6.5 6.5 6.6 6.2 6.0 5.3 5.2 4.5 3.7 3.6 4.9 5.6 4.8 3.8 2.9 2.9 2.3 2.8 2.3 2.3 1.8 1.8 4.9 1.8 1.4 0.5 0.8 1.5 2.2 1.7 3.2
5.8 6.2 5.8 2.8 1.7 1.7 3.1 4.5 4.7 5.7 5.1 5.4 5.2 5.7 5.9 5.0 4.9 5.0 4.3 2.6 3.3 6.6 6.5 6.6 6.5 5.6 5.0 4.4 4.5 4.0 3.0 3.2 3.3 3.7 4.5 4.4 4.7 3.7 3.9 3.6 2.9 2.9 2.4 2.9 2.5 2.7 2.3 2.0 2.1 1.9 3.7 4.7 5.4 5.2
4.1 4.5 2.8 2.5 3.0 3.8 4.4 3.7 4.8 4.4 4.6 5.6 5.7 5.7 6.5 6.5 6.5 5.7 5.3 5.8 6.7 6.9 6.3 6.3 5.9 6.1 5.1 4.0 3.6 2.8 2.4 2.7 2.8 3.3 5.2 4.7 3.8 3.6 3.6 3.4 2.8 2.3 2.6 2.8 3.1 2.8 2.5 2.5 2.9 2.9 4.6 4.8 5.8 5.4
3.5 2.5 2.7 4.3 5.0 5.5 5.9 4.5 5.9 5.4 6.5 6.5 6.4 6.5 6.5 6.5 6.3 5.5 6.6 6.8 6.8 6.2 5.5 5.0 4.6 5.0 4.2 4.1 3.6 3.0 2.4 2.3 2.5 2.4 2.3 2.5 3.1 3.6 3.1 3.2 2.2 1.2 1.4 1.0 1.3 2.4 2.8 6.1 4.4 5.7 4.7 5.9 5.1 4.9
1.0 2.3 5.1 5.8 6.0 6.5 5.2 5.7 5.2 6.1 6.4 6.5 6.5 6.5 6.5 6.6 6.4 6.6 6.5 6.8 7.1 6.6 5.5 4.9 5.5 5.3 5.2 4.9 4.2 3.7 3.0 2.3 2.0 2.0 1.3 0.3 2.0 1.1 0.4 0.5 0.2 0.2 1.4 1.1 1.2 1.6 2.2 2.8 5.2 3.5 4.3 4.1 4.4 4.7
3.7 5.6 5.8 6.5 5.9 6.4 6.5 6.5 6.5 6.5 6.5 6.5 6.5 6.5 6.5 6.4 6.5 6.5 6.5 6.7 7.0 6.2 5.5 5.1 4.7 4.5 4.7 4.8 4.4 3.4 0.9 0.6 -0.1 -0.1 0.4 -0.9 -0.8 -0.1 1.4 1.3 -0.8 0.1 -0.3 -0.2 0.4 0.8 0.9 1.0 1.6 1.9 2.3 3.5 4.3 4.4
6.5 6.5 6.5 6.5 6.5 6.5 6.5 6.5 6.5 6.5 6.5 6.5 6.5 6.6 6.4 6.5 6.5 6.5 6.5 6.8 6.4 5.9 5.1 4.5 4.3 4.5 3.8 2.3 1.2 1.9 1.1 -1.4 -2.2 -1.4 -0.0 -1.3 -2.8 -1.6 -2.9 -2.1 -1.5 2.3 0.6 0.5 -0.0 -0.9 0.2 0.5 0.7 0.5 1.0 2.9 6.3 5.3
6.5 6.5 6.9 6.6 6.9 6.8 6.6 6.8 6.8 6.5 6.5 6.5 6.5 6.5 6.5 6.5 6.5 6.5 6.1 5.0 5.0 3.4 2.4 1.7 1.1 0.7 0.9 1.1 1.7 0.9 -2.1 -5.7 -4.0 -2.3 -2.2 -2.6 -1.6 -1.9 -0.1 -0.6 -0.1 1.9 2.2 -0.9 -0.6 0.7 0.9 1.2 1.3 2.5 3.0 3.3 3.4 3.5
6.4 6.4 6.5 6.7 6.7 6.3 6.5 6.5 6.5 6.5 6.5 6.9 6.7 6.5 6.5 6.5 6.5 5.9 4.2 1.0 -1.3 -2.3 -3.2 -4.2 -4.0 -4.0 -3.8 -4.4 -5.6 -6.5 -5.5 -7.6 -5.3 -4.1 -5.4 -4.1 -4.9 -3.3 -0.4 0.0 0.4 5.6 6.5 2.4 3.4 3.0 3.0 3.2 2.8 2.1 3.3 3.6 3.0 3.3
6.6 5.8 6.6 6.5 6.7 6.7 6.7 6.5 6.5 7.0 6.5 6.7 6.5 6.5 6.4 5.4 3.1 1.6 0.4 -3.4 -7.0 -5.2 -3.9 -3.6 -3.0 -7.2 -7.3 -7.5 -9.2 -10.0 -9.4 -7.8 -3.2 -1.7 -2.8 -1.1 -1.7 0.3 -1.4 -1.6 -1.0 0.7 1.0 1.1 5.1 7.3 7.1 6.8 5.4 4.8 4.5 4.5 3.1 1.7
5.6 4.2 6.0 5.8 6.5 6.5 6.0 4.2 4.0 3.8 4.5 3.5 3.4 3.3 2.8 1.1 -2.7 -7.2 -6.4 -6.6 -4.4 -4.3 -6.3 -7.1 -8.6 -8.1 -5.4 -6.7 -3.8 -2.1 -4.4 -6.4 -4.5 -1.8 -1.3 0.1 -0.1 -2.1 -3.2 -0.0 0.7 0.4 0.3 0.7 0.6 0.6 4.8 2.7 2.1 0.4 1.8 0.8 2.0 2.4
1.6 2.5 4.1 4.8 5.7 2.4 0.7 -1.4 -3.0 0.8 -3.9 -4.5 -6.3 -2.4 -1.2 -4.0 -2.8 -5.6 -6.2 -8.1 -9.5 -9.2 -5.4 -3.7 -4.3 -8.6 -5.6 -3.7 -4.2 -2.8 1.9 -1.6 -4.5 -2.7 -1.8 0.2 0.6 0.8 1.3 1.6 1.6 0.8 0.2 0.5 0.9 0.9 0.3 0.0 -0.1 -0.0 0.4 0.7 1.3 5.8
-1.9 -2.0 1.9 6.5 3.6 -2.3 -5.2 -5.6 -6.1 -5.0 -3.8 -2.2 -2.3 -4.7 -2.6 -0.9 0.1 -0.8 -4.5 -8.1 -5.6 -2.2 0.8 -4.8 -4.2 -0.2 -1.3 0.4 0.7 0.0 4.4 4.3 3.7 3.4 1.9 2.2 2.1 2.3 2.7 2.9 2.7 1.6 1.0 1.7 2.3 2.8 2.2 1.5 1.4 0.9 1.0 0.9 1.4 2.4
-5.7 -5.0 -4.6 -2.5 1.1 0.3 -1.8 -2.3 -0.7 -1.1 -1.9 -2.0 -1.0 -3.5 -4.5 -1.0 2.4 0.3 -4.0 -5.9 -2.7 -2.1 0.3 -0.3 -0.8 0.1 1.5 0.9 1.6 1.7 4.7 3.5 2.9 8.5 9.3 9.8 9.8 9.5 8.9 7.2 4.8 4.1 4.1 3.5 3.2 4.0 3.6 3.0 2.4 0.9 0.3 0.3 1.0 1.9
Wind_Speed
30 30 30 29 28 26 24 23 22 20 18 15 13 10 7 4 4 3 1 0 1 2 2 6 6 5 3 2 3 3 2 2 3 2 3 3 3 4 1 4 5 6 6 4 3 2 8 7 3 6 4 1 3 2
32 32 31 31 31 30 28 26 25 23 21 19 17 15 11 8 7 5 2 1 1 2 2 1 4 3 5 7 5 2 2 4 3 3 1 2 3 2 2 3 1 3 5 4 8 6 3 6 4 2 2 4 5 5
34 34 33 33 33 33 32 31 29 26 23 21 19 17 15 12 10 5 3 3 2 2 2 0 4 3 2 3 3 4 2 4 3 2 3 1 3 3 4 5 1 4 2 2 4 2 6 8 3 4 7 5 5 5
34 34 34 34 34 34 33 32 31 29 27 25 22 20 17 14 13 9 3 4 2 2 2 3 1 2 1 3 2 2 5 4 5 2 2 3 2 2 2 1 2 2 4 4 7 8 3 9 8 5 6 6 6 5
33 34 34 33 34 34 33 32 32 32 30 28 25 21 19 17 15 8 3 5 2 2 3 3 1 1 0 3 6 5 6 4 2 2 2 3 2 3 0 0 4 7 7 6 6 4 4 5 2 4 9 8 8 8
24 22 29 33 33 32 32 31 31 32 31 29 27 23 20 18 19 3 2 2 7 2 2 2 1 2 2 4 5 5 3 2 2 3 3 2 1 2 3 4 7 6 4 5 4 3 4 4 4 3 6 6 6 7
25 23 26 21 25 32 31 31 31 30 30 31 29 27 23 23 7 3 2 4 12 2 2 3 3 1 2 3 1 2 1 1 2 2 3 2 2 3 2 5 5 6 6 5 4 4 4 3 2 3 4 4 7 5
27 26 26 23 24 19 25 30 31 32 34 34 33 30 25 27 15 3 2 16 8 4 2 2 2 2 4 2 2 0 2 1 2 2 1 2 2 1 5 12 5 4 2 4 9 7 2 2 1 1 2 5 4 6
29 29 27 26 25 22 24 21 29 28 28 31 33 29 8 3 4 3 15 11 5 2 3 3 4 3 1 1 2 1 1 1 1 2 3 4 3 6 11 9 6 8 7 4 3 4 2 2 3 3 4 3 6 6
29 29 28 27 26 24 22 22 19 24 29 31 13 3 4 3 37 22 3 2 1 2 1 4 1 3 4 2 0 2 0 2 2 4 3 4 5 14 7 6 4 6 7 9 5 2 3 5 7 8 10 6 9 8
30 29 28 27 25 24 22 19 19 18 22 2 4 3 5 24 3 1 3 4 3 3 4 4 7 5 3 3 3 3 3 2 0 3 3 3 4 3 3 3 3 4 6 11 3 3 4 5 6 8 8 9 7 7
33 31 30 28 27 25 22 19 18 10 3 6 12 9 3 3 2 5 5 2 5 6 4 6 4 3 2 2 3 2 4 2 5 2 1 3 5 1 0 1 2 3 5 6 8 9 7 7 6 7 7 9 11 10
31 31 30 29 28 26 22 19 16 20 28 3 3 5 7 3 6 10 10 5 4 6 6 4 3 4 2 0 3 3 4 5 3 2 4 5 0 2 3 3 3 2 2 4 4 3 3 3 4 5 6 4 6 8
30 29 28 28 27 26 22 17 16 21 4 3 6 6 6 6 7 7 6 6 4 5 11 7 4 3 2 3 3 4 2 2 2 3 7 3 2 2 2 1 2 4 3 2 2 2 4 4 3 3 4 4 6 8
32 30 26 24 26 24 22 19 24 7 3 4 5 7 8 4 2 1 3 5 2 9 9 5 3 2 2 3 3 4 2 4 5 5 2 1 1 2 1 2 3 3 4 4 3 3 4 2 2 3 3 3 4 4
33 29 20 25 24 22 21 17 11 5 3 4 5 3 1 4 1 2 2 4 1 9 3 3 4 4 4 4 4 7 6 7 4 2 2 3 2 1 2 2 2 1 1 1 2 2 3 3 4 3 1 2 4 5
31 10 22 24 22 21 21 3 2 5 5 4 3 2 3 1 4 2 3 5 8 7 3 3 6 6 3 3 4 5 5 2 3 4 4 4 4 4 4 4 4 4 4 4 3 3 3 2 2 2 3 4 5 5
10 11 25 24 18 7 2 3 4 5 5 2 2 3 3 1 6 4 4 10 5 2 5 4 4 4 5 7 4 2 2 2 4 4 4 4 4 4 4 4 5 4 4 5 4 3 3 1 3 4 4 3 3 3
16 16 26 26 11 4 3 3 2 3 2 1 3 3 3 3 2 6 8 6 2 2 6 3 4 4 3 2 2 2 3 2 2 2 2 4 4 4 5 5 4 5 6 5 4 3 2 3 4 3 3 3 3 3
28 28 28 25 9 2 3 2 1 4 3 2 3 3 3 3 0 5 8 3 2 2 2 1 2 2 2 2 3 3 3 2 2 1 1 2 3 3 5 4 4 6 5 4 3 7 2 2 2 3 2 3 2 4
13 13 18 7 3 5 3 3 4 2 2 3 2 2 3 2 3 3 3 3 4 3 2 2 3 3 5 4 4 4 4 3 2 1 1 2 3 3 3 3 3 3 2 3 3 4 6 2 3 3 3 4 3 4
4 16 3 5 4 3 3 3 3 1 3 2 2 3 3 2 2 2 1 5 3 2 2 2 2 2 4 4 4 5 3 3 2 1 4 4 3 3 3 3 3 3 3 3 3 3 3 3 4 3 3 4 5 2
9 7 4 4 4 4 2 1 3 4 3 2 2 3 3 2 2 0 4 2 2 2 2 2 2 4 6 5 5 5 4 4 3 3 3 2 2 2 2 3 2 1 3 3 2 3 3 10 7 4 3 2 1 1
10 5 5 4 5 3 1 3 2 3 3 3 3 3 3 2 1 3 3 2 2 1 2 3 2 3 3 3 3 3 3 3 2 2 1 1 2 2 2 2 2 1 1 3 3 3 4 4 9 4 3 1 1 1
7 8 5 6 4 3 4 3 3 3 3 3 3 3 2 1 2 3 2 1 1 2 2 2 3 3 2 2 2 2 2 2 2 2 2 2 1 2 3 2 2 1 1 3 4 4 5 5 4 4 3 3 3 3
8 6 5 7 4 4 4 3 4 3 3 3 3 1 0 2 3 3 2 1 1 1 2 2 2 2 3 2 1 2 1 1 1 1 3 3 3 2 3 2 2 2 1 1 1 3 5 4 4 5 4 6 10 4
6 5 3 4 3 3 3 3 4 4 5 3 2 1 1 4 3 2 1 2 2 2 2 2 2 2 1 2 2 1 2 1 4 4 4 4 5 4 4 3 4 3 3 2 3 3 4 5 5 5 5 4 3 3
3 6 6 6 4 5 3 4 5 5 3 4 2 4 3 3 2 1 2 2 2 2 2 2 2 1 1 2 2 3 3 2 5 5 3 2 2 2 3 2 1 12 7 4 6 4 4 5 5 6 6 6 4 3
4 6 3 6 4 5 5 5 3 3 4 3 2 2 2 2 1 1 1 2 2 2 3 2 2 2 2 2 1 2 2 1 4 5 4 4 3 3 1 1 3 4 4 4 13 12 9 7 8 7 8 6 4 3
4 4 3 4 5 5 2 2 2 3 2 2 2 2 2 2 1 1 2 2 2 1 2 2 1 2 2 2 4 5 2 3 4 3 3 4 4 3 4 6 7 6 4 4 5 7 13 5 5 4 3 2 2 2
4 2 4 4 3 1 2 3 3 1 3 3 2 3 2 2 2 2 1 1 2 2 2 2 3 1 1 3 2 3 6 2 5 7 7 6 7 7 8 7 6 5 4 5 5 5 5 3 3 3 4 4 6 6
4 4 3 3 1 3 3 3 1 3 4 3 4 3 3 3 3 3 1 2 2 2 3 1 2 4 3 4 5 5 15 8 7 7 9 8 8 9 9 8 8 6 6 8 7 7 7 7 5 5 5 7 7 6
3 2 3 3 4 4 3 3 5 3 3 3 3 1 0 1 2 2 1 3 2 3 4 4 3 4 7 8 8 7 12 6 11 20 24 25 25 20 11 6 7 9 10 9 9 8 9 10 8 8 7 8 8 7
Wind_Direction
245 242 242 243 241 241 248 251 252 249 248 241 237 239 239 201 131 120 119 145 136 174 209 189 177 143 131 138 154 202 75 345 51 90 151 218 174 222 115 205 190 172 149 192 138 167 274 157 78 180 191 119 176 135
247 247 245 243 241 241 237 235 238 239 240 237 231 228 224 218 169 139 132 179 153 155 225 213 230 203 185 178 135 208 169 179 191 93 212 124 196 183 171 262 310 272 191 186 191 217 207 210 201 226 168 147 184 171
244 244 243 243 242 239 237 233 230 231 230 232 233 228 222 214 190 164 143 148 113 73 290 246 224 201 107 179 183 134 255 160 166 168 150 193 225 143 184 238 249 250 169 219 22 282 223 218 214 203 184 182 162 155
245 244 244 243 242 242 239 235 232 227 222 221 227 227 222 215 189 158 150 174 110 127 143 253 127 145 83 154 127 90 129 101 102 111 124 151 192 136 229 212 214 193 128 189 262 276 292 251 232 192 181 155 140 139
250 247 246 244 243 241 240 237 232 227 219 216 214 214 217 210 190 140 127 204 238 172 211 249 114 107 19 161 134 126 142 132 152 112 141 211 163 140 109 73 240 186 192 180 232 227 164 245 262 220 178 181 171 151
280 299 259 246 245 242 238 237 235 228 218 211 204 201 206 199 141 110 307 209 189 168 92 323 68 66 90 121 127 135 142 108 122 158 204 228 226 139 156 218 245 201 211 187 230 205 202 249 263 253 187 170 163 161
277 282 269 291 265 242 239 236 234 229 216 207 196 193 194 180 137 166 198 153 157 133 79 324 280 134 108 106 80 113 68 192 163 205 221 171 202 176 179 233 228 211 218 200 192 141 289 200 251 227 159 153 159 95
271 273 272 282 270 294 259 235 231 224 218 204 187 186 186 163 123 126 111 132 133 93 74 229 247 223 183 138 151 184 142 172 221 245 166 185 128 139 247 238 217 210 205 245 217 209 123 270 337 130 82 122 130 167
261 262 265 268 269 281 268 295 234 226 215 199 176 169 154 144 140 149 130 109 66 132 220 171 191 226 135 103 110 61 98 180 264 237 241 153 181 227 225 216 195 201 187 182 90 129 118 193 223 182 147 173 174 192
255 255 256 257 261 264 274 273 290 228 211 180 120 135 163 162 121 115 50 115 152 249 255 219 129 187 125 172 247 102 307 225 214 232 143 219 250 258 249 198 178 176 176 143 124 213 180 243 204 194 208 195 205 193
252 251 250 250 250 252 258 266 272 289 186 53 134 95 111 131 87 91 166 184 158 254 203 210 192 146 210 134 166 193 191 193 287 243 187 240 263 244 136 182 207 188 196 202 189 130 183 170 176 192 208 211 196 183
250 247 245 244 245 247 244 254 258 256 138 143 108 103 117 146 133 164 190 140 197 220 175 152 174 124 166 146 116 210 175 101 242 130 162 260 252 146 135 268 270 211 203 219 214 215 193 200 199 193 199 196 199 203
248 246 243 241 240 241 237 244 248 138 120 128 86 130 149 176 182 187 183 216 212 173 171 158 122 128 105 127 89 135 141 213 109 178 234 237 259 11 336 342 359 360 323 307 310 301 233 207 179 195 205 195 173 179
243 239 236 235 233 234 224 229 211 152 131 193 155 174 178 182 219 196 186 150 190 127 140 123 109 141 151 134 146 147 184 105 219 245 232 235 180 127 351 296 30 354 13 337 296 274 247 241 255 231 217 179 175 192
241 238 232 228 228 225 212 213 185 172 158 212 187 206 201 179 77 169 124 103 90 141 126 105 84 126 128 140 176 99 100 248 214 233 242 176 113 114 39 16 21 16 7 9 355 333 301 256 249 285 240 210 194 157
233 230 223 216 221 215 206 208 188 158 184 221 221 182 339 159 123 98 86 107 161 140 105 86 131 138 185 159 147 209 163 221 239 211 128 117 80 33 359 357 17 23 57 340 337 315 307 259 232 247 157 199 197 185
221 205 190 200 207 198 199 126 135 174 196 211 216 117 150 4 127 145 127 140 155 148 131 146 159 186 108 164 215 187 210 212 147 121 97 69 61 32 6 1 1 3 10 10 359 347 289 298 153 141 225 226 210 204
181 159 166 177 180 160 70 152 178 184 192 138 160 171 131 142 132 112 113 142 135 170 143 164 120 179 190 178 216 180 114 60 67 76 64 45 52 20 2 345 345 350 353 348 357 340 342 307 255 252 240 224 176 185
131 145 152 163 139 113 136 182 193 141 77 94 94 73 77 86 358 108 128 137 110 114 114 153 169 187 182 90 88 75 64 49 70 52 57 77 43 12 356 350 343 355 354 347 341 326 296 249 246 247 226 177 206 192
133 145 152 142 105 119 112 59 53 92 102 87 54 53 74 87 323 117 120 81 81 95 85 66 48 54 70 69 40 82 75 55 54 43 98 53 17 353 6 353 344 335 333 339 332 335 309 305 276 239 221 206 191 224
91 133 114 65 72 57 77 12 55 51 89 73 84 58 59 21 43 47 50 1 62 37 83 55 81 86 74 73 65 86 63 45 59 50 34 318 4 0 342 339 337 342 337 333 335 328 350 285 275 245 234 265 246 215
78 77 75 53 78 71 76 9 97 102 72 100 73 49 63 55 39 37 28 53 53 40 22 68 75 105 92 70 70 62 48 48 49 356 7 19 358 345 345 344 347 345 341 332 336 318 306 297 291 244 230 247 273 200
54 48 47 35 83 55 34 343 70 14 92 84 88 74 47 61 51 221 75 68 83 32 34 62 76 73 101 91 90 73 50 39 29 12 359 345 308 328 333 328 335 313 326 309 311 316 321 342 334 337 240 277 176 218
35 48 34 42 40 73 44 38 42 61 64 54 53 77 44 53 54 59 74 64 68 53 57 45 94 104 97 84 61 50 37 24 359 339 3 5 344 325 326 305 325 323 294 294 325 336 343 340 354 340 331 311 218 193
68 8 14 15 13 39 54 50 41 59 74 59 90 79 60 322 74 64 72 96 90 83 69 64 67 50 79 79 70 40 36 52 11 316 278 185 257 324 329 324 302 249 330 20 360 353 342 334 331 333 331 317 258 239
69 14 35 1 10 27 12 66 37 59 82 70 56 75 14 77 70 67 74 94 81 73 66 62 71 87 67 69 13 341 313 51 73 276 277 195 192 181 249 270 311 307 19 7 307 306 310 306 308 323 316 331 330 358
50 357 25 35 338 335 74 56 43 52 58 52 34 45 59 70 72 75 99 33 82 68 64 64 77 99 162 298 292 287 318 207 208 235 271 259 247 220 214 208 233 243 283 261 258 252 273 292 298 302 299 297 269 262
51 24 31 353 41 10 52 47 35 33 26 347 296 37 62 41 89 75 59 55 57 64 67 41 37 72 308 267 270 301 302 313 292 283 283 275 260 251 248 224 236 280 311 291 270 245 249 259 264 260 265 266 264 239
39 348 349 31 41 45 37 24 46 34 343 310 25 64 75 52 43 75 66 37 32 72 64 39 327 331 316 296 260 242 255 16 30 1 342 302 326 309 260 287 276 276 269 267 290 302 286 271 251 243 244 246 242 227
6 346 77 48 50 41 9 359 346 334 353 28 3 88 64 30 346 43 79 45 57 127 197 188 285 33 341 2 320 320 264 189 193 176 224 268 250 250 269 280 278 269 252 249 264 284 305 309 320 341 332 312 246 206
330 359 72 43 78 324 306 321 306 314 23 34 353 93 141 272 341 19 83 129 136 99 51 351 329 202 258 301 270 296 306 246 221 234 241 257 263 261 261 259 254 246 235 237 249 251 257 281 251 268 278 277 277 270
17 46 91 73 318 300 10 43 356 47 351 41 2 12 9 42 42 318 346 92 41 358 283 213 288 294 243 259 260 247 269 277 273 265 251 259 261 256 256 255 252 241 237 244 245 245 236 237 246 237 245 258 261 257
49 44 52 65 20 6 345 49 22 12 30 40 14 14 140 113 133 270 284 191 198 230 273 262 247 268 277 276 273 277 300 279 281 297 306 307 305 299 292 268 234 233 234 236 235 233 232 230 236 237 235 238 244 245